Flag for U.S.A. Weather past 2 weeks in Lafayette, Indiana, U.S.A.

Now
65 °F

Fog.


Feels Like: 65 °F
Forecast: 65 / 77 °F
Wind: 5 mph from South

Location: Purdue University Airport

Current Time: May 26, 2015 at 4:32:40 AM

Latest Report: May 26, 2015 at 3:54 AM


Visibility: 6 mi

Pressure: 29.98 "Hg

Humidity: 94%

Dew point: 63 °F

Location of LafayetteLocation

Historic Weather in Lafayette — Graph

°F

Lafayette temperature yesterday

Maximum temperature yesterday: 80 °F (at 3:54 PM)
Minimum temperature yesterday: 69 °F (at 10:54 PM)
Average temperature yesterday: 74 °F

Past Weeks' High & Low Weather Summary

 TemperatureHumidityPressure
High82 °F (May 24, 5:54 PM)100% (May 15, 11:54 PM)30.45 "Hg (May 15, 11:54 PM)
Low38 °F (May 13, 5:54 AM)30% (May 23, 3:54 PM)29.84 "Hg (May 11, 5:54 PM)
Average61 °F70%30.11 "Hg
* Reported May 11 2:54 AM — May 26 2:54 AM, Lafayette, Weather by CustomWeather, © 2015

Note: Actual official high and low records may vary slightly from our data, if they occured in-between our weather recording intervals... More about our weather records

Advertising

Lafayette weather history for previous 24 hours

 ConditionsComfort  
Time TempWeatherWind HumidityBarometerVisibility
2:54 AM
Tue, May 26
65 °FClear.7 mph97%29.99 "Hg7 mi
1:54 AM67 °FClear.8 mph90%30.00 "Hg9 mi
12:54 AM68 °FPassing clouds.8 mph87%30.01 "Hg10 mi
11:54 PM
Mon, May 25
69 °FPassing clouds.9 mph87%30.03 "Hg10 mi
10:54 PM69 °FClear.8 mph84%30.01 "Hg10 mi
9:54 PM72 °FSunny.8 mph73%29.97 "Hg10 mi
8:54 PM74 °FSunny.8 mph69%29.97 "Hg10 mi
7:54 PM76 °FPassing clouds.12 mph62%29.97 "Hg10 mi
6:54 PM77 °FPartly sunny.9 mph60%29.97 "Hg10 mi
5:54 PM78 °FScattered clouds.14 mph58%29.97 "Hg10 mi
4:54 PM79 °FScattered clouds.16 mph56%29.96 "Hg10 mi
3:54 PM80 °FBroken clouds.17 mph49%29.96 "Hg10 mi
2:54 PM79 °FScattered clouds.10 mph54%29.96 "Hg10 mi
1:54 PM77 °FScattered clouds.17 mph62%29.97 "Hg10 mi
12:54 PM76 °FMore clouds than sun.18 mph62%29.97 "Hg10 mi
11:54 AM74 °FCloudy.15 mph69%29.98 "Hg10 mi
10:54 AM72 °FMore clouds than sun.16 mph76%29.97 "Hg10 mi
9:54 AM71 °FCloudy.13 mph78%29.96 "Hg10 mi
8:54 AM70 °FMostly cloudy.15 mph81%29.95 "Hg10 mi
8:01 AM70 °FMostly cloudy.13 mph81%29.96 "Hg10 mi
6:54 AM71 °FLight rain. Partly cloudy.14 mph78%29.93 "Hg10 mi
5:54 AM72 °FClear.14 mph73%29.92 "Hg10 mi
4:54 AM73 °FPassing clouds.14 mph69%29.92 "Hg10 mi
Weather by CustomWeather, © 2015

See weather overviewHow to use our weather pages